Weather History for Kalaeloa, HI

Change the Weather History Date:

Saturday, April 6, 2013

  Actual Average (PHNL) Record (PHNL)
Temperature  
Mean Temperature 74 °F 76 °F  
Max Temperature 81 °F 82 °F 87 °F (1996)
Min Temperature 66 °F 69 °F 61 °F (1985)
Degree Days  
Heating Degree Days 0 0  
Month to date heating degree days 0  
Since 1 July heating degree days 0  
Cooling Degree Days 8 11  
Month to date cooling degree days 66  
Year to date cooling degree days 841  
Growing Degree Days 24 (Base 50)    
Moisture  
Dew Point 67 °F    
Average Humidity 76    
Maximum Humidity 87    
Minimum Humidity 65    
Precipitation  
Precipitation 0.00 in 0.03 in 0.28 in (1965)
Month to date precipitation 0.21  
Year to date precipitation 6.53  
Snow  
Snow 0.00 in - - ()
Month to date snowfall  
Since 1 July snowfall  
Snow Depth -    
Sea Level Pressure  
Sea Level Pressure 30.15 in    
Wind  
Wind Speed 4 mph (ESE)    
Max Wind Speed 12 mph    
Max Gust Speed 18 mph    
Visibility 10 miles    
Events      
T = Trace of Precipitation, MM = Missing Value Source: NWS Daily Summary

Daily Weather History Graph

Daily Weather History Graph

Search for Another Location

Airport:

Trip Planner

Search our weather history database for the weather conditions in past years. The results will help you decide how hot, cold, wet, or windy it might be!

Date:

Astronomy

Apr. 06, 2013 Rise Set
Actual Time 6:20 AM HST 6:48 PM HST
Civil Twilight 5:58 AM HST 7:11 PM HST
Nautical Twilight 5:31 AM HST 7:37 PM HST
Astronomical Twilight 5:05 AM HST 8:04 PM HST
Moon 3:45 AM HST (4/6) 3:51 PM HST (4/6)
Length of Visible Light 13h 13m
Length of Day
12h 28m
Waning Crescent, 13% of the Moon is Illuminated
Apr 6
Waning Crescent
Apr 9
New
Apr 18
First Quarter
Apr 25
Full
May 2
Last Quarter

Hourly Weather History & Observations

Time (HST) Temp. Heat Index Dew Point Humidity Pressure Visibility Wind Dir Wind Speed Gust Speed Precip Events Conditions
12:53 AM 69.1 °F - 64.0 °F 84% 30.15 in 10.0 mi Variable 3.5 mph - N/A   Clear
1:53 AM 70.0 °F - 64.0 °F 81% 30.14 in 10.0 mi Calm Calm - N/A   Partly Cloudy
2:53 AM 66.9 °F - 63.0 °F 87% 30.13 in 10.0 mi Calm Calm - N/A   Clear
3:53 AM 66.9 °F - 63.0 °F 87% 30.11 in 10.0 mi Calm Calm - N/A   Clear
4:53 AM 69.1 °F - 64.9 °F 87% 30.12 in 10.0 mi Calm Calm - N/A   Clear
5:53 AM 70.0 °F - 66.0 °F 87% 30.13 in 10.0 mi Variable 3.5 mph - N/A   Clear
6:53 AM 70.0 °F - 66.0 °F 87% 30.15 in 10.0 mi Calm Calm - N/A   Scattered Clouds
7:53 AM 75.0 °F - 66.9 °F 76% 30.16 in 10.0 mi Variable 4.6 mph - N/A   Partly Cloudy
8:53 AM 77.0 °F - 66.9 °F 71% 30.17 in 10.0 mi ENE 6.9 mph - N/A   Mostly Cloudy
9:33 AM 78.8 °F - 68.0 °F 69% 30.16 in 10.0 mi East 4.6 mph - N/A   Mostly Cloudy
9:53 AM 81.0 °F 84.1 °F 69.1 °F 67% 30.18 in 10.0 mi ESE 8.1 mph - N/A   Mostly Cloudy
10:53 AM 81.0 °F 83.8 °F 68.0 °F 65% 30.18 in 10.0 mi SE 9.2 mph - N/A   Mostly Cloudy
11:53 AM 80.1 °F 82.7 °F 68.0 °F 67% 30.17 in 10.0 mi SE 11.5 mph 18.4 mph N/A   Partly Cloudy
12:53 PM 81.0 °F 84.1 °F 69.1 °F 67% 30.14 in 10.0 mi SE 9.2 mph - N/A   Clear
1:53 PM 80.1 °F 83.2 °F 70.0 °F 71% 30.13 in 10.0 mi SE 8.1 mph - N/A   Scattered Clouds
2:53 PM 81.0 °F 84.4 °F 70.0 °F 69% 30.11 in 10.0 mi SE 11.5 mph - N/A   Clear
3:53 PM 79.0 °F - 71.1 °F 77% 30.11 in 10.0 mi Variable 5.8 mph - N/A   Scattered Clouds
4:53 PM 79.0 °F - 69.1 °F 72% 30.10 in 10.0 mi SE 9.2 mph - N/A   Clear
5:53 PM 77.0 °F - 69.1 °F 76% 30.11 in 10.0 mi ESE 8.1 mph - N/A   Mostly Cloudy
6:53 PM 75.0 °F - 66.9 °F 76% 30.13 in 10.0 mi Variable 6.9 mph - N/A   Partly Cloudy
7:53 PM 73.9 °F - 64.9 °F 73% 30.14 in 10.0 mi Variable 3.5 mph - N/A   Clear
8:53 PM 73.9 °F - 64.9 °F 73% 30.16 in 10.0 mi Variable 4.6 mph - N/A   Clear
9:53 PM 73.0 °F - 64.9 °F 76% 30.19 in 10.0 mi Variable 3.5 mph - N/A   Clear
10:53 PM 72.0 °F - 64.9 °F 78% 30.20 in 10.0 mi Calm Calm - N/A   Clear
11:53 PM 70.0 °F - 64.9 °F 84% 30.19 in 10.0 mi ENE 3.5 mph - N/A   Clear